Location: Newark
(51.2625°N, 13.3939°E)
Time: 06:11:51
(UTC+00:00)

Explorer 7 - Pass Details

Date: 15 November 2019
Orbit: 485 x 679 km, 50.3° (Epoch: 15 December)

Event Time Altitude Azimuth Distance (km) Brightness Sun altitude
Rises 03:46:46 0° 270° (W) 2,793 - -24.2°
Reaches altitude 10° 03:49:06 10° 269° (W) 1,859 - -23.9°
Maximum altitude 03:53:20 79° 183° (S) 554 - -23.2°
Exits shadow 03:53:29 77° 149° (SSE) 557 6.8 -23.2°
Drops below altitude 10° 03:57:17 10° 97° (E) 1,748 10.5 -22.6°
Sets 03:59:26 0° 96° (E) 2,610 11.8 -22.2°
